Weather observations for the past three days for
Jack Edwards Airport
Imperial (Metric)
Date Time (cdt) Wind (mph) Vis. (mi.) Weather Sky Cond. Temperature (ºF) Relative Humidity Wind Chill (°F) Heat Index (°F) Pressure Precipitation (in)
Air Dwpt 6 hour altimeter (in) sea level (mb) 1 hr 3 hr 6 hr
Max. Min.
23 04:15 Calm 10.00 Fair CLR 77 77 100% 78 30.04 0.0
23 03:55 Calm 10.00 Fair CLR 77 77 100% 78 30.03 0.0
23 03:35 Calm 10.00 Fair CLR 77 77 100% 78 30.03 0.0
23 03:15 Calm 10.00 Fair CLR 77 77 100% 78 30.03 0.0
23 02:55 Calm 10.00 Fair CLR 77 77 100% 78 30.03 0.0
23 02:35 Calm 10.00 Fair CLR 77 77 100% 78 30.03 0.0
23 02:15 Calm 10.00 Fair CLR 77 77 100% 78 30.04 0.0
23 01:35 Calm 10.00 Fair CLR 77 77 100% 78 30.04 0.0
23 01:15 Calm 10.00 Fair CLR 78.8 78.8 100% 83 30.04 0.0
23 00:55 Calm 10.00 Fair CLR 77 77 100% 78 30.04 0.0
23 00:35 Calm 10.00 Fair CLR 78.8 78.8 100% 83 30.04 0.0
23 00:15 S 3 10.00 Fair CLR 80.6 78.8 94% 88 30.05 0.0
22 23:55 S 3 10.00 Fair CLR 82.4 78.8 89% 92 30.05 0.0
22 23:35 Calm 10.00 Fair CLR 78.8 78.8 100% 83 30.04 0.0
22 23:15 Calm 10.00 Fair CLR 80.6 78.8 94% 88 30.05 0.0
22 22:55 Calm 10.00 Fair CLR 82.4 78.8 89% 92 30.05 0.0
22 22:35 S 5 10.00 Fair CLR 82.4 78.8 89% 92 30.05 0.0
22 22:15 Calm 10.00 Fair CLR 82.4 78.8 89% 92 30.05 0.0
22 21:55 Calm 10.00 Fair CLR 82.4 78.8 89% 92 30.05 0.0
22 21:15 S 5 10.00 Fair CLR 82.4 77 84% 91 30.03 0.0
22 20:55 S 3 10.00 Fair CLR 82.4 78.8 89% 92 30.03 0.0
22 20:35 S 5 10.00 Fair CLR 82.4 77 84% 91 30.02 0.0
22 20:15 S 6 10.00 Fair CLR 82.4 77 84% 91 30.02 0.0
22 19:56 S 5 10.00 Fair CLR 82.4 77 84% 91 30.02 0.0
22 18:56 S 6 10.00 Fair CLR 84.2 77 79% 94 30 0.0
22 17:56 SW 8 10.00 Fair CLR 87.8 77 70% 100 29.98 0.0
22 16:56 SW 8 10.00 A Few Clouds FEW029 87.8 78.8 75% 102 29.98 0.0
22 14:55 SW 7 G 16 10.00 Fair CLR 89.6 78.8 71% 105 30.01 0.0
22 13:55 SW 10 10.00 A Few Clouds FEW028 87.8 77 70% 100 30.03 0.0
22 13:06 S 9 10.00 A Few Clouds FEW019 87.8 77 70% 100 30.04 0.0
22 11:55 SW 10 10.00 A Few Clouds FEW027 89.6 75.2 63% 100 30.04 0.0
22 10:56 SW 9 10.00 Partly Cloudy SCT035 87.8 73.4 62% 96 30.05 0.0
22 08:56 SW 6 10.00 A Few Clouds FEW017 84.2 78.8 84% 96 30.05 0.0
22 07:56 Calm 9.00 A Few Clouds FEW015 77 77 100% 78 30.03 0.0
22 06:58 Calm 9.00 A Few Clouds FEW015 77 77 100% 78 30.01 0.0
22 06:35 Calm 10.00 Fair CLR 77 77 100% 78 30.01 0.0
22 06:15 Calm 10.00 Fair CLR 77 77 100% 78 30 0.0
22 05:55 Calm 10.00 Fair CLR 75.2 75.2 100% 73 30.01 0.0
22 05:35 Calm 10.00 Fair CLR 77 77 100% 78 30.01 0.0
22 05:15 Calm 10.00 Fair CLR 77 77 100% 78 30.01 0.0
22 04:55 Calm 10.00 Fair CLR 75.2 75.2 100% 73 30 0.0
22 04:35 Calm 10.00 Fair CLR 75.2 75.2 100% 73 29.99 0.0
22 04:15 Calm 10.00 Fair CLR 75.2 75.2 100% 73 30 0.0
22 03:55 Calm 10.00 Fair CLR 75.2 75.2 100% 73 30 0.0
22 03:35 Calm 10.00 Fair CLR 77 77 100% 78 29.99 0.0
22 03:15 Calm 10.00 Fair CLR 75.2 75.2 100% 73 29.99 0.0
22 02:55 Calm 10.00 Fair CLR 77 77 100% 78 29.99 0.0
22 02:35 Calm 10.00 Fair CLR 77 77 100% 78 30 0.0
22 02:15 Calm 10.00 Fair CLR 75.2 75.2 100% 73 30.01 0.0
22 01:55 Calm 10.00 Fair CLR 77 77 100% 78 30.02 0.0
22 01:35 Calm 10.00 Fair CLR 77 77 100% 78 30.02 0.0
22 01:15 Calm 10.00 Fair CLR 77 77 100% 78 30.03 0.0
22 00:55 Calm 10.00 Fair CLR 77 77 100% 78 30.03 0.0
22 00:35 Calm 10.00 Fair CLR 77 77 100% 78 30.04 0.0
22 00:15 Calm 10.00 Fair CLR 78.8 78.8 100% 83 30.05 0.0
21 23:55 SE 3 10.00 Fair CLR 78.8 78.8 100% 83 30.05 0.0
21 23:35 Calm 10.00 Fair CLR 77 77 100% 78 30.05 0.0
21 23:15 SE 5 10.00 A Few Clouds FEW009 77 77 100% 78 30.05 0.0
21 22:55 SE 3 10.00 A Few Clouds FEW008 77 77 100% 78 30.05 0.0
21 22:35 SE 7 10.00 A Few Clouds FEW009 77 77 100% 78 30.05 0.0
21 22:15 SE 8 10.00 Fair CLR 77 77 100% 78 30.05 0.0
21 21:55 SE 5 9.00 Light Rain FEW060 FEW075 FEW085 77 77 100% 78 30.05 0.0
21 21:35 SE 6 10.00 Thunderstorm in Vicinity Rain FEW065 SCT085 SCT110 77 77 100% 78 30.05 0.0
21 21:15 Calm 9.00 Thunderstorm in Vicinity CLR 77 77 100% 78 30.04 0.0
21 20:55 Calm 10.00 Fair CLR 77 77 100% 78 30.04 0.0 0.01
21 20:35 E 3 10.00 A Few Clouds FEW016 FEW048 FEW055 78.8 78.8 100% 83 30.04 0.0
21 20:15 Calm 10.00 Overcast SCT016 BKN046 OVC110 78.8 78.8 100% 83 30.04 0.0
21 18:56 NW 5 10.00 A Few Clouds FEW017 FEW022 FEW039 82.4 78.8 89% 92 30.02 0.0
21 16:56 S 5 10.00 Fair CLR 82.4 77 84% 91 29.97 0.0
21 14:55 SW 7 10.00 Fair CLR 82.4 75.2 79% 89 30.03 0.0
21 12:55 SE 6 10.00 Fair CLR 80.6 75.2 84% 86 30.04 0.0
21 11:55 Calm 10.00 Fair CLR 77 75.2 94% 78 30.06 0.0
21 10:55 Calm 10.00 Light Rain CLR 73.4 73.4 100% 30.08 0.0
21 09:59 Vrbl 5 4.00 Thunderstorm in Vicinity Rain SCT065 71.6 71.6 100% 30.07 0.0
21 08:57 SE 7 G 15 2.00 Thunderstorm Light Rain OVC002 73.4 73.4 100% 30.1 0.0
21 07:56 N 9 10.00 Thunderstorm BKN023 OVC028 77 75.2 94% 78 30.05 0.0
21 06:56 Calm 10.00 Thunderstorm in Vicinity FEW043 78.8 78.8 100% 83 30.03 0.0
21 06:35 Calm 10.00 Overcast FEW026 BKN044 OVC100 78.8 78.8 100% 83 30.03 0.0
21 06:15 Calm 10.00 Thunderstorm in Vicinity BKN046 78.8 78.8 100% 83 30.04 0.0
21 05:55 Calm 10.00 Fair CLR 78.8 78.8 100% 83 30.03 0.0
21 05:35 Calm 10.00 Fair CLR 78.8 78.8 100% 83 30.02 0.0
21 05:15 Calm 10.00 Thunderstorm in Vicinity CLR 78.8 78.8 100% 83 30.02 0.0
21 04:55 Calm 10.00 Fair CLR 78.8 78.8 100% 83 30.02 0.0
21 04:35 Calm 10.00 Fair CLR 78.8 78.8 100% 83 30.02 0.0
21 04:15 Calm 10.00 Fair CLR 78.8 78.8 100% 83 30.02 0.0
21 03:55 Calm 10.00 Fair CLR 80.6 78.8 94% 88 30.02 0.0
21 03:35 W 6 10.00 Fair CLR 78.8 78.8 100% 83 30.02 0.0
21 03:15 Calm 10.00 Fair CLR 80.6 78.8 94% 88 30.02 0.0
21 02:55 S 5 10.00 Fair CLR 80.6 77 89% 87 30.02 0.0
21 02:35 Calm 10.00 Fair CLR 80.6 78.8 94% 88 30.02 0.0
21 02:15 Calm 10.00 Fair CLR 78.8 78.8 100% 83 30.02 0.0
21 01:55 Calm 10.00 Fair CLR 80.6 78.8 94% 88 30.03 0.0
21 01:35 Calm 9.00 Fair CLR 80.6 78.8 94% 88 30.04 0.0
21 01:15 Calm 10.00 Fair CLR 80.6 78.8 94% 88 30.04 0.0
21 00:55 S 3 10.00 A Few Clouds FEW018 82.4 78.8 89% 92 30.05 0.0
21 00:35 SW 5 10.00 A Few Clouds FEW018 82.4 80.6 94% 94 30.06 0.0
21 00:15 SW 6 10.00 A Few Clouds FEW017 82.4 80.6 94% 94 30.06 0.0
20 23:55 SW 7 10.00 A Few Clouds FEW016 82.4 80.6 94% 94 30.06 0.0
20 23:35 SW 7 G 13 10.00 A Few Clouds FEW015 82.4 80.6 94% 94 30.06 0.0
20 23:15 S 6 G 13 10.00 Fair CLR 82.4 78.8 89% 92 30.06 0.0
20 22:55 S 7 10.00 A Few Clouds FEW018 82.4 78.8 89% 92 30.06 0.0
20 22:35 S 6 G 12 10.00 Fair CLR 82.4 78.8 89% 92 30.06 0.0
20 22:15 S 6 10.00 Fair CLR 82.4 80.6 94% 94 30.05 0.0
20 21:55 S 6 10.00 Fair CLR 82.4 80.6 94% 94 30.04 0.0
20 21:35 S 6 10.00 A Few Clouds FEW016 82.4 80.6 94% 94 30.03 0.0
20 21:15 S 6 10.00 Partly Cloudy FEW017 SCT025 82.4 80.6 94% 94 30.04 0.0
20 20:55 S 7 10.00 Mostly Cloudy BKN025 82.4 80.6 94% 94 30.04 0.0 0.01
20 20:35 S 6 G 12 10.00 Fair CLR 80.6 80.6 100% 89 30.05 0.0
20 20:15 S 12 10.00 Mostly Cloudy SCT014 BKN018 80.6 80.6 100% 89 30.05 0.0
20 19:59 S 9 G 15 5.00 Light Rain Fog/Mist BKN014 BKN018 OVC030 82.4 80.6 94% 94 30.04 0.0
20 18:57 SE 5 10.00 Mostly Cloudy BKN019 BKN023 84.2 80.6 89% 98 30.02 0.0
20 16:56 S 8 G 14 10.00 Fair CLR 86 77 75% 97 30.02 0.0
20 14:55 Vrbl 6 10.00 Thunderstorm in Vicinity FEW025 84.2 75.2 74% 92 30.04 0.0
20 13:55 Calm 10.00 Thunderstorm in Vicinity FEW026 FEW037 84.2 80.6 89% 98 30.07 0.0
20 12:55 Vrbl 5 10.00 Thunderstorm in Vicinity CLR 82.4 80.6 94% 94 30.07 0.0
20 11:58 N 6 4.00 Thunderstorm Light Rain FEW019 SCT043 82.4 77 84% 91 30.08 0.0
20 10:56 SW 17 10.00 Thunderstorm in Vicinity CLR 87.8 80.6 79% 105 30.06 0.0
20 09:58 SW 12 10.00 Thunderstorm in Vicinity CLR 87.8 80.6 79% 105 30.06 0.0
20 08:55 S 3 10.00 Thunderstorm in Vicinity FEW075 86 78.8 79% 99 30.06 0.0
20 07:58 SW 7 10.00 Fair CLR 84.2 80.6 89% 98 30.04 0.0
20 06:55 SW 5 10.00 A Few Clouds FEW015 FEW039 82.4 82.4 100% 96 30.01 0.0
20 06:35 SW 9 10.00 Mostly Cloudy FEW015 SCT022 BKN070 82.4 80.6 94% 94 30.01 0.0
20 06:15 SW 6 10.00 A Few Clouds FEW022 82.4 80.6 94% 94 30.02 0.0
20 05:55 SW 5 10.00 Fair CLR 82.4 80.6 94% 94 30.01 0.0
20 05:35 SW 6 10.00 Fair CLR 82.4 80.6 94% 94 30.01 0.0
20 05:15 SW 7 10.00 Fair CLR 82.4 78.8 89% 92 30.01 0.0
20 04:55 SW 8 10.00 Fair CLR 82.4 78.8 89% 92 30.01 0.0
20 04:35 SW 9 10.00 Fair CLR 82.4 78.8 89% 92 30.01 0.0
Date Time (cdt) Wind (mph) Vis. (mi.) Weather Sky Cond. Air Dwpt Max. Min. Relative Humidity Wind Chill (°F) Heat Index (°F) altimeter (in) sea level (mb) 1 hr 3 hr 6 hr
6 hour
Temperature (ºF) Pressure Precipitation (in)